Tracking 30072 objects as of 14-Jan-2025
HD Live streaming from Space Station
objects crossing your sky now

TIANQI-12

Track TIANQI-12 now!
10-day predictions


NORAD ID: 48426
Int'l Code: 2021-039D
Perigee: 558.9 km
Apogee: 566.1 km
Inclination: 35.0 °
Period: 95.8 minutes
Semi major axis: 6933 km
RCS: Unknown
Launch date: May 6, 2021
Source: People's Republic of China (PRC)
Launch site: Xichang Space Center, China (XSC)
Your satellite tracking list
Your tracking list is empty




NASA's NSSDC Master Catalog

Two Line Element Set (TLE):
1 48426U 21039D   25014.15207563  .00007063  00000-0  50573-3 0  9999
2 48426  35.0015 276.4471 0005183   5.6506 354.4260 15.03749537201832
Source of the keplerian elements: AFSPC